Regional Weather Roundup
Issued by NWS

Home | Current Version | Previous Version | Text Only | Print | Product List | Glossary Off
Versions: 1 2 3 4 5 6 7 8 9 10 11 12 13 14 15 16 17 18 19 20 21 22 23 24 25 26 27 28 29 30 31 32 33 34 35 36 37 38 39 40 41 42 43 44 45 46 47 48 49 50

000
ASUS43 KDTX 161410
RWRMI
MICHIGAN HOURLY REGIONAL WEATHER ROUNDUP
NATIONAL WEATHER SERVICE DETROIT/PONTIAC MI
1000 AM EDT WED APR 16 2014

NOTE: "FAIR" INDICATES FEW OR NO CLOUDS BELOW 12,000 FEET WITH NO
SIGNIFICANT WEATHER AND/OR OBSTRUCTION TO VISIBILITY.

MIZ047>049-052>055-059>063-066>070-074>076-081>083-161500-
SOUTHEAST LOWER MICHIGAN

CITY           SKY/WX    TMP DP  RH WIND       PRES   REMARKS
ADRIAN         SUNNY     32  14  47 S6        30.44R WCI  26
ALMA           SUNNY     32  16  52 S6        30.40S WCI  26
ANN ARBOR      SUNNY     32  12  43 S6        30.43R WCI  26
BAD AXE        MOSUNNY   30  19  62 SW5       30.43R WCI  26
CARO           SUNNY     33  17  52 SW3       30.42S
DETROIT CITY   SUNNY     34   9  35 S8        30.46R WCI  27
DETROIT        PTSUNNY   32  11  41 S6        30.46R WCI  26
FLINT          SUNNY     33  15  47 VRB5      30.43R WCI  29
GROSSE ILE     SUNNY     34   9  35 CALM      30.44R
HILLSDALE      SUNNY     33  14  46 S9        30.39R WCI  25
HOWELL         SUNNY     32  14  48 SE5       30.41R WCI  27

CITY           SKY/WX    TMP DP  RH WIND       PRES   REMARKS
JACKSON        SUNNY     33  14  45 SE9       30.41R WCI  25
LAMBERTVILLE   SUNNY     36  10  35 SE5       30.44R WCI  32
LANSING        SUNNY     33  14  45 S7        30.41R WCI  27
LAPEER         FAIR      31  13  48 SW5       30.43R WCI  26
MASON          SUNNY     32  16  52 S9        30.41R WCI  24
MONROE         SUNNY     34   7  32 SE3       30.44R
MT. CLEMENS    MOSUNNY   35  11  38 S6        30.44R WCI  30
PONTIAC        MOSUNNY   30  10  43 CALM      30.41R
PORT HOPE        N/A     30  19  63 VRB3      30.42R
PORT HURON     SUNNY     32  14  47 SW6       30.45R WCI  26
TRI CITIES     SUNNY     33  17  51 S7        30.42R WCI  27
TROY           SUNNY     32   8  36 S6        30.45R WCI  26
SAGINAW HB     SUNNY     32  14  47 SW6       30.42S WCI  26
YPSILANTI      SUNNY     34  12  40 S6        30.44R WCI  29
$$
MIZ043>046-050>051-056>058-064>065-071>073-077>080-161500-
SOUTHWEST LOWER MICHIGAN

CITY           SKY/WX    TMP DP  RH WIND       PRES   REMARKS
BATTLE CREEK   SUNNY     34  16  47 S10       30.39R WCI  26
BENTON HARBOR  SUNNY     34  19  54 S12       30.37R WCI  25
BIG RAPIDS     SUNNY     32  19  59 S10       30.36R WCI  24
COLDWATER      SUNNY     33  15  47 S10       30.39S WCI  25
FREMONT        FAIR      32  15  49 S7        30.37R WCI  26
HOLLAND        PTSUNNY   33  18  53 SE13      30.38R WCI  24
GRAND RAPIDS   PTSUNNY   35  17  47 S14       30.38S WCI  26
IONIA          FAIR      32  16  51 S8        30.39R WCI  25
KALAMAZOO      MOSUNNY   34  14  43 S12       30.38S WCI  25
LUDINGTON      SUNNY     34  19  54 S9        30.36S WCI  27
MARSHALL       SUNNY     32  15  48 SE9       30.39S WCI  24
MOUNT PLEASANT SUNNY     33  17  53 SE8       30.39S WCI  26
MUSKEGON       PTSUNNY   35  16  45 SE9       30.38R WCI  28
SOUTH HAVEN    MOSUNNY   34  17  50 S8        30.37R WCI  27
$$
MIZ016>042-161500-
NORTHERN LOWER MICHIGAN

CITY           SKY/WX    TMP DP  RH WIND       PRES   REMARKS
ALPENA         SUNNY     25  15  66 SE6       30.41R WCI  18
BEAVER ISLAND  SUNNY     26  25  95 SE7       30.35R WCI  18
BELLAIRE       SUNNY     31  21  68 S5        30.36S WCI  26
CADILLAC       SUNNY     29  19  65 S10       30.33R WCI  20
CHARLEVOIX     SUNNY     28  26  91 SE3       30.38S
FRANKFORT      MOSUNNY   33  22  64 S8        30.36R WCI  25
GAYLORD        SUNNY     25  19  78 S8        30.33R WCI  16
GRAYLING       SUNNY     28  21  74 SW6       30.35S WCI  22
HARBOR SPRINGS SUNNY     26  20  78 CALM      30.36R
HOUGHTON LAKE  SUNNY     28  19  69 SW6       30.36R WCI  22
MANISTEE       SUNNY     34  16  47 S9G16     30.36R WCI  26
OSCODA         SUNNY     30  19  63 SE3       30.42R
PELLSTON       SUNNY     22  18  85 SE6       30.37R WCI  14
ROGERS CITY    SUNNY     26  16  65 S8        30.40R WCI  17
TRAVERSE CITY  MOSUNNY   32  21  64 S5        30.36R WCI  27
$$
MIZ007>008-015-161500-
EASTERN UPPER MICHIGAN

CITY           SKY/WX    TMP DP  RH WIND       PRES   REMARKS
KINROSS        SUNNY     27  10  50 S7        30.35R WCI  19
MACKINAC ISLAN SUNNY     24  12  59 S8        30.36R WCI  15
NEWBERRY       SUNNY     23  10  56 S7        30.33R WCI  15
S. S. MARIE    SUNNY     22  10  60 CALM      30.36R
MUNISING         N/A     29  18  63 S8        30.31R WCI  21
$$
MIZ004>006-011>014-085-161500-
CENTRAL UPPER MICHIGAN

CITY           SKY/WX    TMP DP  RH WIND       PRES   REMARKS
MANISTIQUE     SUNNY     27  19  71 SE9       30.33R WCI  18
ESCANABA       MOSUNNY   30  19  64 S9        30.30S WCI  22
MENOMINEE      CLOUDY    30  21  69 SE5       30.30S WCI  25
SAWYER-GWINN   MOSUNNY   19  18  93 S7        30.27R WCI  10
$$
MIZ001>003-009>011-084-161500-
WESTERN UPPER MICHIGAN

CITY           SKY/WX    TMP DP  RH WIND       PRES   REMARKS
IRON MOUNTAIN  CLOUDY    22  17  81 SE5       30.26R WCI  16
HOUGHTON       PTSUNNY   23  10  57 S7        30.24R WCI  15
COPPER HARBOR    N/A     29   4  34 SW3       30.28R
IRONWOOD       CLOUDY    27  10  50 SE5       30.16R WCI  21
$$

ABBREVIATIONS USED IN REMARKS
   TC - TEMPERATURE IN CELSIUS
  WCI - WIND CHILL INDEX
   HX - HEAT INDEX
  VSB - VISIBILITY




USA.gov is the U.S. government's official web portal to all federal, state and local government web resources and services.